[keps] orb09218.2l.amsat
Ray Hoad
r.hoad at att.net
Thu Aug 6 20:28:26 PDT 2009
SB KEPS @ AMSAT $ORB09218.N
2Line Orbital Elements 09218.AMSAT
HR AMSAT ORBITAL ELEMENTS FOR AMATEUR SATELLITES IN NASA FORMAT
FROM WA5QGD FORT WORTH,TX August 6, 2009
Send Subscribe/unsubscribe to KEPS at
http://www.amsat.org/mailman/listinfo/keps
BID: ORB09218.N
DECODE 2-LINE ELSETS WITH THE FOLLOWING KEY:
1 AAAAAU 00 0 0 BBBBB.BBBBBBBB .CCCCCCCC 00000-0 00000-0 0 DDDZ
2 AAAAA EEE.EEEE FFF.FFFF GGGGGGG HHH.HHHH III.IIII JJ.JJJJJJJJKKKKKZ
KEY: A-CATALOGNUM B-EPOCHTIME C-DECAY D-ELSETNUM E-INCLINATION F-RAAN
G-ECCENTRICITY H-ARGPERIGEE I-MNANOM J-MNMOTION K-ORBITNUM Z-CHECKSUM
TO ALL RADIO AMATEURS BT
AO-07
1 07530U 74089B 09218.52640616 -.00000027 00000-0 10000-3 0 5487
2 07530 101.4244 241.3519 0011745 168.9775 191.1560 12.53576053589023
FO-29
1 24278U 96046B 09218.06798528 .00000146 00000-0 18670-3 0 01069
2 24278 098.5461 085.3854 0350097 221.0245 136.4087 13.52944989640497
SO-33
1 25509U 98061B 09217.82261861 .00000231 00000-0 35910-4 0 05150
2 25509 031.4309 131.8193 0354033 052.4708 310.7565 14.28260842562932
RS-22
1 27939U 03042A 09217.70445482 -.00000017 00000-0 55995-5 0 08594
2 27939 097.9369 090.7546 0013201 341.0019 019.0684 14.63332599312819
VO-52
1 28650U 05017B 09217.82335502 .00000143 00000-0 24645-4 0 02919
2 28650 097.7389 277.7560 0026162 226.0531 133.8482 14.81608083229995
AO-16
1 20439U 90005D 09217.95937409 -.00000006 00000-0 13300-4 0 06701
2 20439 098.2823 184.1068 0011565 027.5310 332.6492 14.31829965020274
LO-19
1 20442U 90005G 09218.00820543 -.00000000 00000-0 15117-4 0 05860
2 20442 098.2452 191.2235 0012242 023.9984 336.1784 14.32065018020445
AO-27
1 22825U 93061C 09217.98987590 -.00000052 00000-0 -36699-5 0 03083
2 22825 098.4383 169.8530 0009228 114.9844 245.2305 14.29270188827022
IO-26
1 22826U 93061D 09217.97130768 -.00000023 00000-0 75386-5 0 00383
2 22826 098.4332 170.5626 0009834 110.7733 249.4507 14.29522652827123
GO-32
1 25397U 98043D 09217.70885507 -.00000059 00000-0 -80651-5 0 09596
2 25397 098.3252 237.3952 0002231 102.1928 257.9480 14.23161727575173
NO-44
1 26931U 01043C 09217.95770410 -.00000110 00000-0 -10524-4 0 02343
2 26931 067.0536 296.1218 0006291 276.0335 084.0053 14.29562034409697
SO-50
1 27607U 02058C 09217.52981322 .00000071 00000-0 33070-4 0 9511
2 27607 064.5562 235.2288 0062117 193.7336 166.2096 14.71451608355933
CO-55
1 27844U 03031E 09217.57503763 .00000020 00000-0 29514-4 0 06384
2 27844 098.7128 226.0425 0010439 006.4617 353.6698 14.20649405316278
CO-57
1 27848U 03031J 09217.55947731 .00000014 00000-0 27111-4 0 05870
2 27848 098.7164 225.0894 0010178 010.7093 349.4304 14.20450198316239
AO-51
1 28375U 04025K 09218.45733493 -.00000005 00000-0 11414-4 0 4541
2 28375 098.0523 225.1303 0084466 333.4001 026.2872 14.40648523268192
CO-56
1 28941U 06005C 09218.57306559 .00063575 41855-5 16645-3 0 3224
2 28941 098.1343 042.7487 0068458 299.9969 059.4746 15.90941206195243
GENESAT1
1 29655U 06058C 09217.47317751 .00008746 00000-0 83980-4 0 07827
2 29655 040.0232 234.2800 0001400 167.8443 192.2408 15.66538409150208
CP3
1 31129U 07012N 09218.54157338 .00000137 00000-0 42100-4 0 1110
2 31129 097.9867 269.2011 0103598 128.7210 232.3316 14.52153339122193
CO-65
1 32785U 08021C 09217.83470974 .00000247 00000-0 38226-4 0 04417
2 32785 097.9419 281.3832 0014017 228.2296 131.7701 14.81506380068793
KKS-1
1 33493U 09002B 09218.57905894 .00000157 00000-0 27407-4 0 6354
2 33493 098.0592 331.0180 0021447 079.5538 280.8087 14.80709027 28920
SOHLA-1
1 33496U 09002E 09218.57202649 -.00000027 00000-0 37100-5 0 5993
2 33496 098.0404 327.1025 0007675 117.0566 243.1427 14.69441616 28671
NOAA-10
1 16969U 86073A 09217.99666487 -.00000018 00000-0 10607-4 0 07153
2 16969 098.6907 244.3694 0013158 053.3257 306.9141 14.27391552190617
NOAA-11
1 19531U 88089A 09217.84998358 .00000007 00000-0 26331-4 0 07315
2 19531 098.7844 307.0363 0011309 331.0407 029.0125 14.14900335076546
NOAA-12
1 21263U 91032A 09218.07999985 .00000020 00000-0 27525-4 0 02535
2 21263 098.7728 226.1638 0012885 006.4290 353.7052 14.25587875947502
MET-3/5
1 21655U 91056A 09218.06096707 .00000051 00000-0 10000-3 0 06958
2 21655 082.5584 171.2668 0014987 058.0416 302.2162 13.17020146864196
MET-2/21
1 22782U 93055A 09217.78658182 .00000089 00000-0 67458-4 0 05309
2 22782 082.5503 142.6720 0021450 204.2758 155.7402 13.83639308804468
OKEAN-4
1 23317U 94066A 09217.70173606 .00000142 00000-0 14629-4 0 09836
2 23317 082.5415 288.2829 0021423 197.2402 162.8110 14.82712185799709
NOAA-14
1 23455U 94089A 09218.06531936 -.00000008 00000-0 19234-4 0 07150
2 23455 098.9066 295.5656 0010093 053.6764 306.5340 14.13766688752972
NOAA-15
1 25338U 98030A 09217.84355300 .00000179 00000-0 95139-4 0 00313
2 25338 098.5866 205.9696 0009522 274.2876 085.7179 14.24778052583841
RESURS
1 25394U 98043A 09218.60377637 -.00000010 00000-0 13336-4 0 2788
2 25394 098.3375 248.3801 0002513 064.2595 295.8845 14.24187287575572
FENGYUN1
1 25730U 99025A 09218.02886913 .00000826 00000-0 50974-3 0 08688
2 25730 098.7556 186.6991 0023496 073.7717 286.6035 14.07944482527338
OKEAN-0
1 25860U 99039A 09217.53713508 .00000030 00000-0 11943-4 0 7490
2 25860 097.7900 196.7660 0001725 054.0777 306.0585 14.73582818540413
NOAA-16
1 26536U 00055A 09217.87637370 -.00000178 00000-0 -71285-4 0 05094
2 26536 099.1767 222.7477 0011192 137.7982 222.4040 14.12526594457318
NOAA-17
1 27453U 02032A 09218.02635444 .00000089 00000-0 56956-4 0 05130
2 27453 098.4805 275.3710 0011235 343.4716 016.6084 14.24081510369843
NOAA-18
1 28654U 05018A 09218.02986077 .00000320 00000-0 20155-3 0 00002
2 28654 098.9077 160.8881 0013615 219.8090 140.2090 14.11277273216981
NOAA-19
1 33591U 09005A 09218.02064335 -.00000028 00000-0 79649-5 0 02048
2 33591 098.7464 162.4910 0015177 100.6381 259.6493 14.10976234025466
HUBBLE
1 20580U 90037B 09216.05936093 .00000257 00000-0 68751-5 0 04303
2 20580 028.4681 149.8546 0003459 072.7348 287.3621 15.00819410857058
ISS
1 25544U 98067A 09218.76983787 .00006047 00000-0 42273-4 0 3640
2 25544 051.6391 047.1561 0007839 301.7887 058.2878 15.73514354613929
CO-58
1 28895U 05043F 09217.68999802 .00000103 00000-0 31041-4 0 03636
2 28895 098.0513 106.9054 0017786 189.8623 170.2258 14.59785994200953
FALCON
1 30776U 07006E 09218.84054226 .00000195 00000-0 17131-4 0 6299
2 30776 035.4327 152.0796 0001790 343.5835 016.4825 15.03280196132723
MAST
1 31126U 07012K 09218.08146277 .00000020 00000-0 14862-4 0 06565
2 31126 097.9858 270.5935 0095570 124.6100 236.4156 14.53510369122281
CAPE1
1 31130U 07012P 09218.72081104 -.00000075 00000-0 -68558-5 0 6663
2 31130 097.9852 269.2749 0103496 128.5251 232.5241 14.52077259122024
COMPASS
1 32787U 08021E 09217.80730855 .00000110 00000-0 20723-4 0 04325
2 32787 097.9396 281.2049 0014910 228.8205 131.1720 14.81635122068798
AAUSAT2
1 32788U 08021F 09217.70352410 .00000189 00000-0 30767-4 0 04293
2 32788 097.9381 281.1676 0014483 230.8122 129.1799 14.81759863068785
DO-64
1 32789U 08021G 09218.06306496 .00000117 00000-0 21649-4 0 04488
2 32789 097.9446 281.7195 0014705 227.3966 132.6010 14.81758687068838
CO-66
1 32791U 08021J 09218.73396049 .00000044 00000-0 12478-4 0 4229
2 32791 097.9406 282.1565 0015146 224.6054 135.3940 14.81461292 68892
RS-30
1 32953U 08025A 09217.52995585 .00000010 00000-0 00000-0 0 03742
2 32953 082.4973 225.9266 0020683 072.1667 288.1672 12.43002587054529
TACSAT-3
1 35001U 09028A 09218.69840913 .00001531 00000-0 44390-4 0 667
2 35001 040.4567 298.5637 0023647 179.8944 180.1879 15.39008262 12138
PHARMSAT
1 35002U 09028B 09218.59416585 .00001472 00000-0 41839-4 0 659
2 35002 040.4715 298.7217 0026416 183.3947 176.6691 15.39768254 12114
HAWKSAT1
1 35003U 09028C 09217.67340144 .00001291 00000-0 37143-4 0 668
2 35003 040.4718 304.0693 0027608 178.5297 181.5603 15.39996925 11985
CP6
1 35004U 09028D 09218.63487114 .00002880 00000-0 74593-4 0 615
2 35004 040.4636 298.0884 0027139 187.1403 172.9026 15.40359092 12123
AEROCUB3
1 35005U 09028E 09218.64407581 .00003142 00000-0 81280-4 0 621
2 35005 040.4765 298.2511 0027055 185.4557 174.5966 15.40196171 12122
POLLUX
1 35693U 09038E 09217.66236149 .00017252 00000-0 93492-4 0 00081
2 35693 051.6410 052.5025 0003590 057.7433 302.3908 15.80182265000946
CASTOR
1 35694U 09038F 09217.66300824 .00009707 00000-0 54765-4 0 00103
2 35694 051.6424 052.5087 0004262 059.0515 301.0902 15.79966325000948
/EX
More information about the Keps
mailing list